Starlink 4415

operational
NORAD ID: 53465 Int'l Des: 2022-099 Owner: SPXS Country: US Constellation: starlink
LEOCIRCULARRETROGRADESSO

Über Starlink 4415

Beschreibung wird geladen...

Live-Position

3D-Globus wird geladen...

Nächste Überflüge

Höhenverlauf

Altitude vs Time

uPlot chart will show altitude changes over time

Zweizeiliger Elementsatz

1 53465U 22099A 25353.20777435 .00000601 00000-0 45878-4 0 9991
2 53465 97.6032 111.8874 0001056 99.0055 261.1291 15.05647145183925
Epoch: 19. Dez. 2025 • Age: 13 hours

Aktueller Status

Höhe 570.8 km
Geschwindigkeit 7.57 km/s
Subsatellitenpunkt -53.12°S, 131.39°E
Startdatum 12. Aug. 2022
Alter 3.3 years
Typ internet

Technische Details

Klassifizierung Payload
Masse 300.00 kg
Trockenmasse 275.00 kg
Gesamtmasse 300.00 kg
Länge 0.20 m
Durchmesser 2.80 m
Spannweite 9.00 m
Form Box + pan
Hersteller SPXS
Bus-Typ Starlink
Phasenstatus In Orbit
Besitzer/Staat SPXS/US

Große Konstellationen

Loading constellations...